Вернуться в каталог

FENGYUN 1C DEB

АктивенSSO
NORAD 41018·DEBRIS·🇨🇳 China

Запущен May 10, 1999 с Taiyuan Satellite Launch Center

Loading…

Ближайшие Пролёты (ближайшие 24 часа)

TLE

СвежийSource: Space-Track

Эпоха: Sep 12, 2026, 02:53 UTC

1 41018U 99025EXY 26255.12076311  .00001311  00000-0  15113-2 0  9999
2 41018  99.9437 205.6232 0304873 162.1169 199.0980 13.53104577918716

Отслеживайте FENGYUN 1C DEB в реальном времени с AllMySat

Download on the App Store